Terug naar catalogus

STARLINK-6368

ActiefCommunicatieVLEO
NORAD 57234·PAYLOAD·🇺🇸 United States

Gelanceerd Jul 7, 2023 vanaf Vandenberg Space Force Base

Loading…

Volgende Passages (komende 24 uur)

TLE

VersSource: CelesTrak SupGP

Epoch: Sep 15, 2026, 02:43 UTC

1 57234C 23094S   26258.11368056 -.00036728  00000+0 -13306-2 0  2582
2 57234  43.0021  40.6243 0001918 269.2914 289.0692 15.27588840    19

Volg STARLINK-6368 in realtime met AllMySat

Download on the App Store